Showing default

ARVAKER-1, 63252

Orbit data source: Space-Track

ARVAKER-1, 63252 is a payload satellite owned by NSC (NO) in SSO that was launched on Sat, 15 Mar 2025 UTC via an FALCON 9 launch vehicle from the Air Force Western Test Range (AFWTR). Payload-class satellites include a variety of spacecraft equipped with specific instruments for various scientific and technological missions. These include communications satellites like Starlink; space stations such as the ISS; scientific satellites like the Hubble; Earth observation satellites from companies like Planet Labs, Umbra, and HawkEye 360; GPS; miniature CubeSats for education and research; and military/defense satellites.

Loading next visibility...
Identifier
63252, 2025-052AU
Orbit
SSO
Country
Flag of NONO / NOR
Related business
Manufacturer
NanoAvionics
Mission
Operational Commercial Sigint
Bus & Motor
MP42, Unknown motor
Mass
~100 kg wet, ~100 kg dry
Launch date (UTC)
2025-03-15 (1 year ago)
Launch vehicle
FALCON 9
Launch site
Air Force Western Test Range (AFWTR)
Object type
Payload
Rocket body
Debris
Shape & HBR
Box + 2 Pan, 0.8 m
Radar Cross Section
0.146 m², Medium (>0.1 m² and < 1m²)

Expand to show TLE details & history
Last TLE update: 11 hours ago

TLE from 11 hours ago
0 ARVAKER-1
1 63252U 25052AU  26129.65038218  .00001847  00000-0  17670-3 0  9999
2 63252  97.6917  21.6367 0002805  24.8558 335.2797 14.94415020 62858
Epoch: 2026-05-09T15:36Z
TLE epoch observation values (Epoch: 2026-05-09T15:36:33.020Z)
Latitude
-0.00002°
Longitude
-79.96565°
Altitude
585.462 km
Speed
7.569 km/s
True Right ascension
01h 26m 32s
True Declination
0° 00' 00"
Sunlit
Object was in daylight at epoch
Visualization orbit readout
Latitude
Unknown
Longitude
Unknown
Altitude
Unknown
Speed
Unknown
Apparent Right ascension
Unknown
Apparent Declination
Unknown
Sunlit
N/A
Visualization observer readout
Local Sidereal Time
11:14:53
Azimuth
Unknown
Elevation
Unknown
Doppler factor
Unknown
Orbital elements
Apogee altitude
583.154 km
Perigee altitude
579.249 km
Semi-major axis
6,959.338 km
Eccentricity
0.00028
Inclination
97.6917°
RAAN
21.6367°
Arg. of periapsis
24.8558°
True anomaly
335.26625°
Mean anomaly
335.2797°
Eccentric anomaly
335.27298°
Mean motion
3.73845 °/min
Orbital period
96.3 mins
BSTAR
0.0001767
Loading maneuver chart data...
Computing Atmospheric mass density...
Loading historical data...
Loading historical data...
Loading historical data...
Loading historical data...
Loading historical data...
Loading historical data...
Loading historical data...

Documentation

Showing up to 5 results
|